www.pogodaiklimat.ru

Погода и климат >> Архив погоды >> Россия >> Хакасия >> Коммунар


ПОГОДА в Коммунаре

  • Прогноз погоды в Коммунаре
  • Монитор погоды в Коммунаре

АРХИВ ПОГОДЫ в Коммунаре

Время (UTC), дата Ветер
(напр.,м/с)
 
Видим.   Явления Облачность Т
(С)
Тd
(С)
f
(%)
Тe
(С)
Тes
(С)
Комфортность P
(гПа)
Po
(гПа)
Тmin
(С)
Tmax
(С)
R
(мм)
R24
(мм)
S
(см)
00 14.03 СЗ 5-14
{14}
н/о позёмок 8/3 600 м
[Sc Ac trans Ci fib]
-1.6 -9.8 54 -7 -7 1026.5 923.8 -1.7 55
03 14.03 З 1 50 км {метель} 8/4 600 м
[Sc Ac trans]
-0.6 -6.6 64 -2 -1 1027.6 925.3
06 14.03
{10}
50 км {метель} 8/6 600 м
[Sc Ac trans]
+1.7 -5.8 57 1027.8 926.2
09 14.03 З 3
{12}
50 км 9/6 600 м
[Sc Ac trans]
+3.7 -5.5 51 +1 +1 1026.8 926.0
12 14.03 Ю 3
{10}
50 км 10/8 600 м
[Sc Ac und]
+3.4 -5.6 52 0 0 1026.8 925.9 +3.7
15 14.03 ЮЗ 3
{10}
н/о 10/6 600 м
[Sc Ac und]
+2.8 -7.3 47 -1 -1 1027.9 926.7
18 14.03 штиль 0 н/о 10/4 600 м
[Sc Ac und]
+1.6 -7.0 53 +1 +1 1026.7 925.3
21 14.03 штиль 0 н/о 6/0
[Ci fib]
-0.1 -7.3 58 -1 -1 1025.9 923.9
00 15.03 штиль 0 н/о 6/0
[Ac trans Ci fib]
-2.0 -8.2 63 -3 -3 1025.3 922.6 -2.0 55
03 15.03 штиль 0 50 км 1/0
[Ci fib]
+5.6 -7.2 39 +5 +10 1021.5 921.9
06 15.03 Ю 2 50 км 8/0
[Ci fib]
+11.6 -9.2 22 +11 +17 1018.1 920.7
09 15.03 Ю 2 50 км 1/0
[Ci fib]
+12.8 -11.7 17 +13 +16 1015.6 918.8
12 15.03 штиль 0 50 км ясно +6.8 -13.9 21 +7 +7 1017.2 918.3 +13.5
15 15.03 штиль 0 н/о ясно +1.1 -13.1 34 +1 +1 1019.3 918.3
18 15.03 штиль 0 н/о ясно -1.0 -11.2 46 -1 -1 1019.0 917.4
21 15.03 штиль 0 н/о ясно -1.8 -10.1 53 -2 -2 1018.6 916.6
00 16.03 З 2 н/о 3/0
[Ci fib]
+2.8 -8.3 44 +1 +1 1015.8 915.7 -1.9 52
03 16.03 З 3 50 км 9/0
[As op Ci fib]
+5.1 -7.6 39 +2 +3 1013.4 914.4
06 16.03 ЮЗ 4-12
{14}
50 км 10/0
[Ac As]
+5.3 -5.5 46 +2 +3 1013.3 914.4
09 16.03 Ю 3
{12}
50 км слаб. ливневой снег 4/3 600 м
[Cb cap Ac trans]
+4.4 -3.0 59 +1 +3 1012.7 913.5
12 16.03 Ю 4-10
{14}
2000 м слаб. ливневой снег 9/9 600 м
[Cb cap]
+0.3 -1.4 88 -5 -5 1014.7 914.0 +7.3 0.4
15 16.03 З 4-10
{12}
н/о сильн. снег {ливн. осадки, метель} 4/4 600 м
[Cb cap]
-3.6 -6.8 78 -10 -10 1017.0 914.6
18 16.03 З 4-10
{14}
н/о слаб. ливневой снег {метель} 6/6 600 м
[Cb cap]
-5.4 -9.2 75 -12 -12 1017.1 914.1
21 16.03 ЮЗ 5-12
{14}
н/о слаб. ливневой снег {метель} 9/9 600 м
[Cb cap]
-8.0 -11.6 75 -15 -15 1018.8 914.6
00 17.03 З 3
{12}
10 км слаб. ливневой снег {метель} 6/6 600 м
[Cb cap]
-8.1 -11.3 78 -14 -14 1019.5 915.2 -8.1 1 52
03 17.03 З 5-12
{14}
10 км слаб. ливневой снег {метель} 8/5 600 м
[Cb cap Ac trans Ci fib]
-7.7 -11.7 73 -15 -14 1018.9 914.8
06 17.03 З 6-17
{17}
4000 м слаб. ливневой снег {метель} 9/8 600 м
[Cb cap Ac trans Ci sp]
-5.3 -12.3 58 -13 -12 1018.9 915.6
09 17.03 ЮЗ 5-14
{17}
4000 м слаб. ливневой снег {метель} 9/9 600 м
[Cb cap]
-5.7 -14.0 52 -12 -12 1019.2 915.8
12 17.03 ЮЗ 4-10
{12}
10 км слаб. ливневой снег {метель} 8/5 600 м
[Cb cap Ac trans Ci fib]
-7.5 -11.9 71 -14 -14 1021.2 916.9 -4.3 0.3
15 17.03 ЮЗ 2 н/о слаб. ливневой снег {метель} 9/9 600 м
[Cb cap]
-8.6 -11.9 77 -13 -13 1024.4 919.4
18 17.03 ЮЗ 2 н/о {ливн. осадки, метель} 8/0
[Cs]
-10.5 -13.3 80 -15 -15 1026.9 920.9
21 17.03 ЮЗ 1 н/о слаб. ливневой снег 9/8 600 м
[Cb cap Ac trans Ci fib]
-14.0 -16.0 85 -16 -16 1030.3 922.5
00 18.03 ЮЗ 1 10 км слаб. ливневой снег 10/8 600 м
[Cb cap Ac und]
-13.8 -15.1 90 -16 -16 1032.4 924.5 -14.5 0.2 52
03 18.03 С 1 50 км слаб. ливневой снег 8/4 600 м
[Cb cap Ci fib]
-9.1 -13.0 73 -11 -9 1032.4 926.4
06 18.03 В 1 50 км {ливн. осадки} 8/6 600 м
[Sc Ac trans]
-6.3 -15.0 50 -8 -6 1032.3 927.4
09 18.03 В 1 50 км 8/5 600 м
[Sc Ci fib]
-4.1 -15.4 41 -6 -4 1031.6 927.5
12 18.03 штиль 0 50 км 8/3 600 м
[Sc Ac trans]
-5.3 -15.1 46 -6 -6 1032.7 928.1 -3.6 0.0
15 18.03 штиль 0 н/о слаб. ливневой снег 9/5 600 м
[Cb cap Ac und]
-7.9 -12.0 72 -8 -8 1034.9 929.1
18 18.03 С 1 н/о {ливн. осадки, морось} 6/0
[Ci fib]
-11.9 -14.6 80 -14 -14 1036.4 928.9
21 18.03 штиль 0 н/о 6/0
[Ac trans Ci fib]
-12.7 -14.0 90 -13 -13 1036.3 928.5
00 19.03 штиль 0 50 км 8/0
[Ac trans Ci fib]
-13.1 -15.1 85 -13 -13 1035.7 927.8 -13.1 0.0 52
03 19.03 Ю 2 50 км 8/0
[Ac trans Ci fib]
-7.1 -12.9 63 -11 -9 1032.9 927.5
06 19.03 В 2 50 км 8/5 600 м
[Sc Ci fib]
-2.0 -13.1 42 -5 -2 1029.3 926.2
09 19.03 В 2 50 км 9/5 600 м
[Sc Ac trans Cc]
-1.7 -13.7 39 -5 -3 1028.1 925.3
12 19.03 Ю 2 50 км 10/3 600 м
[Sc Cs]
-3.8 -13.0 49 -7 -7 1029.1 925.4 -1.3
15 19.03 штиль 0 н/о слаб. ливневой снег 9/3 600 м
[Cb cap Ci fib]
-6.1 -11.5 66 -7 -7 1031.3 926.5
18 19.03 штиль 0 н/о слаб. ливневой снег 8/3 600 м
[Cb cap Ci fib]
-7.2 -10.6 77 -8 -8 1032.1 926.8
21 19.03 штиль 0 н/о слаб. ливневой снег 8/4 600 м
[Cb cap Ac trans Ci fib]
-8.7 -11.6 79 -9 -9 1033.1 927.2
00 20.03 штиль 0 50 км {ливн. осадки} 8/6 600 м
[Sc Ac trans]
-12.1 -13.4 90 -12 -12 1035.6 928.1 -12.1 0.0 52
03 20.03 В 1 50 км слаб. снег 9/9 600 м
[Sc]
-7.6 -11.1 76 -10 -9 1034.9 929.3
06 20.03 В 1 50 км слаб. снег 9/9 600 м
[Sc]
-3.7 -9.0 67 -6 -5 1033.5 929.4
09 20.03 В 2 50 км слаб. ливневой снег 10/10 600 м
[Cb cap]
-3.2 -8.4 67 -7 -7 1033.5 929.5
12 20.03 штиль 0 50 км слаб. ливневой снег 8/8 600 м
[Cb cap]
-4.0 -7.3 78 -5 -5 1034.3 930.1 -2.3 0.2
15 20.03 штиль 0 н/о {ливн. осадки} 8/8 600 м
[Sc]
-7.0 -8.7 88 -8 -8 1036.3 930.7
18 20.03 штиль 0 н/о {ливн. осадки} ясно -10.9 -11.5 95 -11 -11 1037.3 930.1

 

Местоположение метеостанции Коммунар (Хакасия, Россия): широта 54.33 долгота 89.28 высота над уровнем моря 847 м.

В архиве по умолчанию представлена погода в Коммунаре за последнюю неделю. Архивные данные за месяц целиком и за предыдущие месяцы, начиная с января 2011 года, Вы можете получить, выбрав интересующий диапазон дат из раскрывающегося списка и нажав кнопку "Ввод!".


*Определитесь, кто Вы:
робот инопланетянин человек

Внимание! Время в таблицах - всемирное. Для получения местного времени необходимо прибавить поправку, которая равна 7 ч.

Смотрите также архив погоды в соседних городах и на ближайших метеорологических станциях:

Погода в Шире (Хакасия, Россия) (46 км)
Погода в Ненастной (Хакасия, Россия) (55 км)
Погода в Копьево-2 (Хакасия, Россия) (86 км)
Погода в Уйбате (Хакасия, Россия) (98 км)
Погода в Междуреченске (Кемеровская область, Россия) (106 км)
Погода в Первомайском (Хакасия, Россия) (107 км)
Погода в Ужуре (Красноярский край, Россия) (113 км)
Погода в Неожиданном (Хакасия, Россия) (118 км)
Погода в Светлолобово (Красноярский край, Россия) (131 км)
Погода в Шарыпово (Красноярский край, Россия) (134 км)

Пояснения к столбцам:

Ветер - указаны скорость ветра в м/с - средняя за 10 мин, порывы в срок и между сроками (в фигурных скобках) и направление, откуда дует ветер: С - северный, СВ - северо-восточный, В - восточный, ЮВ - юго-восточный, Ю - южный, ЮЗ - юго-западный, З - западный, СЗ - северо-западный.
Видимость - горизонтальная дальность видимости в метрах или километрах. При видимости от 1 до 10 км при отсутствии осадков обычно наблюдается дымка, при ухудшении видимости до 1 км и менее - туман. В сухую погоду видимость может ухудшаться дымом, пылью или мглою.
Явления - указаны атмосферные явления, наблюдавшиеся в срок или в последний час перед сроком; фигурными скобками обозначены явления, наблюдавшиеся между сроками (за 1-3 часа до срока); квадратными скобками обозначены град или гололедные отложения с указанием их диаметра в мм.
Облачность - указаны через наклонную черту общая и нижняя облачность в баллах и высота нижней границы облаков в метрах; квадратными скобками обозначены формы облаков: Ci - перистые, Cs - перисто-слоистые, Cc - перисто-кучевые, Ac - высококучевые, As - высокослоистые, Sc - слоисто-кучевые, Ns - слоисто-дождевые, Cu - кучевые, Cb - кучево-дождевые. Подробнее классификацию облаков см. в Атласе облаков (PDF).
T - Температура воздуха - температура, измеренная на высоте 2 м над землей.
Td - Температура точки росы - температура, при понижении до которой содержащийся в воздухе водяной пар достигнет насыщения.
f - Относительная влажность воздуха - влажноcть воздуха, измеренная на высоте 2 м над землей.
Te - Эффективная температура - температура, которую ощущает одетый по сезону человек в тени. Характеристика душности погоды. При расчете учитывается влияние влажности воздуха и скорости ветра на теплоощущения человека.
Tes - Эффективная температура на солнце - температура, которую ощущает человек, с поправкой на солнечный нагрев. Характеристика знойности погоды. Зависит от высоты солнца над горизонтом, облачности и скорости ветра. Ночью, в пасмурную погоду, а также при ветре 12 м/с и более поправка равна нулю.
P - Атмосферное давление - приведенное к уровню моря атмосферное давление.
Po - Атмосферное давление - измеренное на уровне метеостанции атмосферное давление.
Tmin - Минимальная температура - минимум температуры воздуха на высоте 2 м над землей.
Tmax - Максимальная температура - максимум температуры воздуха на высоте 2 м над землей.
R - Количество осадков - Количество выпавших осадков за период времени, мм. При наведении курсора мыши на число - период времени, за который выпало указанное количество осадков.
R24 - Количество осадков - Количество выпавших осадков за 24 часа, мм.
S - Снежный покров - Высота снежного покрова, см. При наведении курсора мыши на число - состояние снежного покрова и степень покрытия местности в баллах.